owner,sensor,date,latitude,longitude,vertical_datum,direction_of_sea_water_velocity,sea_water_speed,upward_sea_water_velocity,qcFlag 
TABS,ioos:station:wmo:42044:1,1999-01-01T00:00:00Z,26.1914,-97.0507,2.0,52.0918515,19.64522588,-99999.0,'11111222,11111222,99999999' 
TABS,ioos:station:wmo:42044:1,1999-01-01T00:30:00Z,26.1914,-97.0507,2.0,52.0918515,19.64522588,-99999.0,'11111222,11111222,99999999' 
TABS,ioos:station:wmo:42044:1,1999-01-01T01:00:00Z,26.1914,-97.0507,2.0,33.75509156,36.73227055,-99999.0,'11111222,11111222,99999999' 
TABS,ioos:station:wmo:42044:1,1999-01-01T01:30:00Z,26.1914,-97.0507,2.0,59.05441019,21.72201188,-99999.0,'11111222,11111222,99999999' 
TABS,ioos:station:wmo:42044:1,1999-01-01T02:00:00Z,26.1914,-97.0507,2.0,56.31001126,20.94825291,-99999.0,'11111222,11111222,99999999' 
TABS,ioos:station:wmo:42044:1,1999-01-01T02:30:00Z,26.1914,-97.0507,2.0,79.03632308,18.82357033,-99999.0,'11111222,11111222,99999999' 
TABS,ioos:station:wmo:42044:1,1999-01-01T03:00:00Z,26.1914,-97.0507,2.0,58.07330184,27.04057137,-99999.0,'11111222,11111222,99999999' 
TABS,ioos:station:wmo:42044:1,1999-01-01T03:30:00Z,26.1914,-97.0507,2.0,65.97168698,40.61996553,-99999.0,'11111222,11111222,99999999' 
TABS,ioos:station:wmo:42044:1,1999-01-01T04:00:00Z,26.1914,-97.0507,2.0,61.51295758,33.7344127,-99999.0,'11111222,11111222,99999999' 
TABS,ioos:station:wmo:42044:1,1999-01-01T04:30:00Z,26.1914,-97.0507,2.0,35.57560029,74.01488769,-99999.0,'11111222,11111222,99999999' 
TABS,ioos:station:wmo:42044:1,1999-01-01T05:00:00Z,26.1914,-97.0507,2.0,42.77537856,40.80253178,-99999.0,'11111222,11111222,99999999' 
TABS,ioos:station:wmo:42044:1,1999-01-01T05:30:00Z,26.1914,-97.0507,2.0,38.43783972,102.3383115,-99999.0,'11111222,11111222,99999999' 
TABS,ioos:station:wmo:42044:1,1999-01-01T06:00:00Z,26.1914,-97.0507,2.0,83.08878904,49.52989501,-99999.0,'11111222,11111222,99999999' 
TABS,ioos:station:wmo:42044:1,1999-01-01T06:30:00Z,26.1914,-97.0507,2.0,62.32292074,89.17329925,-99999.0,'11111222,11111222,99999999' 
TABS,ioos:station:wmo:42044:1,1999-01-01T07:00:00Z,26.1914,-97.0507,2.0,72.03268417,74.39822175,-99999.0,'11111222,11111222,99999999' 
TABS,ioos:station:wmo:42044:1,1999-01-01T07:30:00Z,26.1914,-97.0507,2.0,66.80536357,96.45639274,-99999.0,'11111222,11111222,99999999' 
TABS,ioos:station:wmo:42044:1,1999-01-01T08:00:00Z,26.1914,-97.0507,2.0,72.55554108,92.93425203,-99999.0,'11111222,11111222,99999999' 
TABS,ioos:station:wmo:42044:1,1999-01-01T08:30:00Z,26.1914,-97.0507,2.0,53.12844079,65.56400003,-99999.0,'11111222,11111222,99999999' 
TABS,ioos:station:wmo:42044:1,1999-01-01T09:00:00Z,26.1914,-97.0507,2.0,240.0681372,56.73750964,-99999.0,'11111222,11111222,99999999' 
TABS,ioos:station:wmo:42044:1,1999-01-01T09:30:00Z,26.1914,-97.0507,2.0,57.49608705,32.15731332,-99999.0,'11111222,11111222,99999999' 
TABS,ioos:station:wmo:42044:1,1999-01-01T10:00:00Z,26.1914,-97.0507,2.0,115.8990404,11.92799229,-99999.0,'11111222,11111222,99999999' 
TABS,ioos:station:wmo:42044:1,1999-01-01T10:30:00Z,26.1914,-97.0507,2.0,82.7796783,20.12962493,-99999.0,'11111222,11111222,99999999' 
TABS,ioos:station:wmo:42044:1,1999-01-01T11:00:00Z,26.1914,-97.0507,2.0,238.7036625,9.760148564,-99999.0,'11133222,11111222,99999999' 
TABS,ioos:station:wmo:42044:1,1999-01-01T11:30:00Z,26.1914,-97.0507,2.0,138.408143,15.93809273,-99999.0,'11111222,11111222,99999999' 
TABS,ioos:station:wmo:42044:1,1999-01-01T12:00:00Z,26.1914,-97.0507,2.0,199.1147999,7.72598861,-99999.0,'11133222,11111222,99999999' 
TABS,ioos:station:wmo:42044:1,1999-01-01T12:30:00Z,26.1914,-97.0507,2.0,106.5165002,26.73306754,-99999.0,'11111222,11111222,99999999' 
TABS,ioos:station:wmo:42044:1,1999-01-01T13:00:00Z,26.1914,-97.0507,2.0,57.47914785,14.136704,-99999.0,'11111222,11111222,99999999' 
TABS,ioos:station:wmo:42044:1,1999-01-01T13:30:00Z,26.1914,-97.0507,2.0,108.7185452,10.22060664,-99999.0,'11111222,11111222,99999999' 
TABS,ioos:station:wmo:42044:1,1999-01-01T14:00:00Z,26.1914,-97.0507,2.0,190.3948234,18.17836076,-99999.0,'11111222,11111222,99999999' 
TABS,ioos:station:wmo:42044:1,1999-01-01T14:30:00Z,26.1914,-97.0507,2.0,61.11739639,13.27073849,-99999.0,'11111222,11111222,99999999' 
TABS,ioos:station:wmo:42044:1,1999-01-01T15:00:00Z,26.1914,-97.0507,2.0,84.77408481,6.587381877,-99999.0,'11133222,11111222,99999999' 
TABS,ioos:station:wmo:42044:1,1999-01-01T15:30:00Z,26.1914,-97.0507,2.0,47.67519054,22.57423531,-99999.0,'11111222,11111222,99999999' 
TABS,ioos:station:wmo:42044:1,1999-01-01T16:00:00Z,26.1914,-97.0507,2.0,144.0751524,5.33472586,-99999.0,'11133222,11111222,99999999' 
TABS,ioos:station:wmo:42044:1,1999-01-01T16:30:00Z,26.1914,-97.0507,2.0,345.6805357,7.843698107,-99999.0,'11133222,11111222,99999999' 
TABS,ioos:station:wmo:42044:1,1999-01-01T17:00:00Z,26.1914,-97.0507,2.0,131.6875531,23.74188282,-99999.0,'11111222,11111222,99999999' 
TABS,ioos:station:wmo:42044:1,1999-01-01T17:30:00Z,26.1914,-97.0507,2.0,87.90159231,24.30629959,-99999.0,'11111222,11111222,99999999' 
TABS,ioos:station:wmo:42044:1,1999-01-01T18:00:00Z,26.1914,-97.0507,2.0,144.4708537,7.692106344,-99999.0,'11133222,11111222,99999999' 
TABS,ioos:station:wmo:42044:1,1999-01-01T18:30:00Z,26.1914,-97.0507,2.0,109.2957104,18.94418116,-99999.0,'11111222,11111222,99999999' 
TABS,ioos:station:wmo:42044:1,1999-01-01T19:00:00Z,26.1914,-97.0507,2.0,60.47916895,13.00886236,-99999.0,'11111222,11111222,99999999' 
TABS,ioos:station:wmo:42044:1,1999-01-01T19:30:00Z,26.1914,-97.0507,2.0,98.54747347,49.11552606,-99999.0,'11111222,11111222,99999999' 
TABS,ioos:station:wmo:42044:1,1999-01-01T20:00:00Z,26.1914,-97.0507,2.0,91.18539541,57.52231045,-99999.0,'11111222,11111222,99999999' 
TABS,ioos:station:wmo:42044:1,1999-01-01T20:30:00Z,26.1914,-97.0507,2.0,97.15470194,35.88945528,-99999.0,'11111222,11111222,99999999' 
TABS,ioos:station:wmo:42044:1,1999-01-01T21:00:00Z,26.1914,-97.0507,2.0,84.62180231,22.2981636,-99999.0,'11111222,11111222,99999999' 
TABS,ioos:station:wmo:42044:1,1999-01-01T21:30:00Z,26.1914,-97.0507,2.0,130.6141245,19.23305488,-99999.0,'11111222,11111222,99999999' 
TABS,ioos:station:wmo:42044:1,1999-01-01T22:00:00Z,26.1914,-97.0507,2.0,126.1703279,24.73784348,-99999.0,'11111222,11111222,99999999' 
TABS,ioos:station:wmo:42044:1,1999-01-01T22:30:00Z,26.1914,-97.0507,2.0,92.31645919,44.28618972,-99999.0,'11111222,11111222,99999999' 
TABS,ioos:station:wmo:42044:1,1999-01-01T23:00:00Z,26.1914,-97.0507,2.0,109.4559985,31.76379858,-99999.0,'11111222,11111222,99999999' 
TABS,ioos:station:wmo:42044:1,1999-01-02T00:00:00Z,26.1914,-97.0507,2.0,112.2444347,42.50321988,-99999.0,'11111222,11111222,99999999' 
TABS,ioos:station:wmo:42044:1,1999-01-02T00:30:00Z,26.1914,-97.0507,2.0,112.2444347,42.50321988,-99999.0,'11111222,11111222,99999999' 
TABS,ioos:station:wmo:42044:1,1999-01-02T01:00:00Z,26.1914,-97.0507,2.0,178.1501738,27.57436672,-99999.0,'11111222,11111222,99999999' 
TABS,ioos:station:wmo:42044:1,1999-01-02T01:30:00Z,26.1914,-97.0507,2.0,91.401333,30.25904989,-99999.0,'11111222,11111222,99999999' 
TABS,ioos:station:wmo:42044:1,1999-01-02T02:00:00Z,26.1914,-97.0507,2.0,126.3321394,25.14910734,-99999.0,'11111222,11111222,99999999' 
TABS,ioos:station:wmo:42044:1,1999-01-02T02:30:00Z,26.1914,-97.0507,2.0,131.4458726,33.99235796,-99999.0,'11111222,11111222,99999999' 
TABS,ioos:station:wmo:42044:1,1999-01-02T03:00:00Z,26.1914,-97.0507,2.0,86.64564487,30.59241246,-99999.0,'11111222,11111222,99999999' 
TABS,ioos:station:wmo:42044:1,1999-01-02T03:30:00Z,26.1914,-97.0507,2.0,95.02101386,49.35940944,-99999.0,'11111222,11111222,99999999' 
TABS,ioos:station:wmo:42044:1,1999-01-02T04:00:00Z,26.1914,-97.0507,2.0,185.1919548,46.07907334,-99999.0,'11111222,11111222,99999999' 
TABS,ioos:station:wmo:42044:1,1999-01-02T04:30:00Z,26.1914,-97.0507,2.0,107.7109049,56.30884922,-99999.0,'11111222,11111222,99999999' 
TABS,ioos:station:wmo:42044:1,1999-01-02T05:00:00Z,26.1914,-97.0507,2.0,196.8278487,83.90292128,-99999.0,'11111222,11111222,99999999' 
TABS,ioos:station:wmo:42044:1,1999-01-02T05:30:00Z,26.1914,-97.0507,2.0,121.4244233,85.73491471,-99999.0,'11111222,11111222,99999999' 
TABS,ioos:station:wmo:42044:1,1999-01-02T06:00:00Z,26.1914,-97.0507,2.0,247.7859694,115.8806045,-99999.0,'11111222,11111222,99999999' 
TABS,ioos:station:wmo:42044:1,1999-01-02T06:30:00Z,26.1914,-97.0507,2.0,243.0393434,47.97374386,-99999.0,'11111222,11111222,99999999' 
TABS,ioos:station:wmo:42044:1,1999-01-02T07:00:00Z,26.1914,-97.0507,2.0,250.0529671,124.902843,-99999.0,'11111222,11111222,99999999' 
TABS,ioos:station:wmo:42044:1,1999-01-02T07:30:00Z,26.1914,-97.0507,2.0,232.1689537,65.83725693,-99999.0,'11111222,11111222,99999999' 
TABS,ioos:station:wmo:42044:1,1999-01-02T08:00:00Z,26.1914,-97.0507,2.0,244.7952542,140.3081074,-99999.0,'11111222,11111222,99999999' 
TABS,ioos:station:wmo:42044:1,1999-01-02T08:30:00Z,26.1914,-97.0507,2.0,223.8150097,76.61018209,-99999.0,'11111222,11111222,99999999' 
TABS,ioos:station:wmo:42044:1,1999-01-02T09:00:00Z,26.1914,-97.0507,2.0,139.7668402,71.0483617,-99999.0,'11111222,11111222,99999999' 
TABS,ioos:station:wmo:42044:1,1999-01-02T09:30:00Z,26.1914,-97.0507,2.0,261.2094053,200.8288251,-99999.0,'11144222,11111222,99999999' 
TABS,ioos:station:wmo:42044:1,1999-01-02T10:00:00Z,26.1914,-97.0507,2.0,224.177902,66.0647107,-99999.0,'11111222,11111222,99999999' 
TABS,ioos:station:wmo:42044:1,1999-01-02T10:30:00Z,26.1914,-97.0507,2.0,189.3229486,61.60377018,-99999.0,'11111222,11111222,99999999' 
TABS,ioos:station:wmo:42044:1,1999-01-02T11:00:00Z,26.1914,-97.0507,2.0,185.3143228,64.34661219,-99999.0,'11111222,11111222,99999999' 
TABS,ioos:station:wmo:42044:1,1999-01-02T11:30:00Z,26.1914,-97.0507,2.0,184.6703255,69.5108193,-99999.0,'11111222,11111222,99999999' 
TABS,ioos:station:wmo:42044:1,1999-01-02T12:00:00Z,26.1914,-97.0507,2.0,182.3757731,71.88179742,-99999.0,'11111222,11111222,99999999' 
TABS,ioos:station:wmo:42044:1,1999-01-02T12:30:00Z,26.1914,-97.0507,2.0,183.2763301,78.20784679,-99999.0,'11111222,11111222,99999999' 
TABS,ioos:station:wmo:42044:1,1999-01-02T13:00:00Z,26.1914,-97.0507,2.0,185.8533824,78.931571,-99999.0,'11111222,11111222,99999999' 
TABS,ioos:station:wmo:42044:1,1999-01-02T13:30:00Z,26.1914,-97.0507,2.0,184.857387,66.84007481,-99999.0,'11111222,11111222,99999999' 
TABS,ioos:station:wmo:42044:1,1999-01-02T14:00:00Z,26.1914,-97.0507,2.0,188.9761206,63.96337077,-99999.0,'11111222,11111222,99999999' 
TABS,ioos:station:wmo:42044:1,1999-01-02T14:30:00Z,26.1914,-97.0507,2.0,181.2121191,63.33417719,-99999.0,'11111222,11111222,99999999' 
TABS,ioos:station:wmo:42044:1,1999-01-02T15:00:00Z,26.1914,-97.0507,2.0,184.1434969,63.93713553,-99999.0,'11111222,11111222,99999999' 
TABS,ioos:station:wmo:42044:1,1999-01-02T15:30:00Z,26.1914,-97.0507,2.0,193.3336889,56.19487521,-99999.0,'11111222,11111222,99999999' 
TABS,ioos:station:wmo:42044:1,1999-01-02T16:00:00Z,26.1914,-97.0507,2.0,196.3245939,52.47563339,-99999.0,'11111222,11111222,99999999' 
TABS,ioos:station:wmo:42044:1,1999-01-02T16:30:00Z,26.1914,-97.0507,2.0,188.7742263,50.80459231,-99999.0,'11111222,11111222,99999999' 
TABS,ioos:station:wmo:42044:1,1999-01-02T17:00:00Z,26.1914,-97.0507,2.0,187.6451252,44.79823211,-99999.0,'11111222,11111222,99999999' 
TABS,ioos:station:wmo:42044:1,1999-01-02T17:30:00Z,26.1914,-97.0507,2.0,190.7087499,44.12855765,-99999.0,'11111222,11111222,99999999' 
TABS,ioos:station:wmo:42044:1,1999-01-02T18:00:00Z,26.1914,-97.0507,2.0,201.8375085,38.03969769,-99999.0,'11111222,11111222,99999999' 
TABS,ioos:station:wmo:42044:1,1999-01-02T19:30:00Z,26.1914,-97.0507,2.0,152.7983272,47.90847629,-99999.0,'11111222,11111222,99999999' 
TABS,ioos:station:wmo:42044:1,1999-01-02T20:00:00Z,26.1914,-97.0507,2.0,123.9880903,79.96111555,-99999.0,'11111222,11111222,99999999' 
TABS,ioos:station:wmo:42044:1,1999-01-02T20:30:00Z,26.1914,-97.0507,2.0,239.0917278,26.39878974,-99999.0,'11111222,11111222,99999999' 
TABS,ioos:station:wmo:42044:1,1999-01-02T21:00:00Z,26.1914,-97.0507,2.0,255.5536996,44.77564628,-99999.0,'11111222,11111222,99999999' 
TABS,ioos:station:wmo:42044:1,1999-01-02T21:30:00Z,26.1914,-97.0507,2.0,236.3044015,30.62499796,-99999.0,'11111222,11111222,99999999' 
TABS,ioos:station:wmo:42044:1,1999-01-02T22:00:00Z,26.1914,-97.0507,2.0,225.7755334,23.49931276,-99999.0,'11111222,11111222,99999999' 
TABS,ioos:station:wmo:42044:1,1999-01-02T22:30:00Z,26.1914,-97.0507,2.0,239.5030321,25.24200071,-99999.0,'11111222,11111222,99999999' 
TABS,ioos:station:wmo:42044:1,1999-01-02T23:00:00Z,26.1914,-97.0507,2.0,230.6537186,21.38796858,-99999.0,'11111222,11111222,99999999' 
TABS,ioos:station:wmo:42044:1,1999-01-03T00:00:00Z,26.1914,-97.0507,2.0,247.3867697,25.1753848,-99999.0,'11111222,11111222,99999999' 
TABS,ioos:station:wmo:42044:1,1999-01-03T00:30:00Z,26.1914,-97.0507,2.0,247.3867697,25.1753848,-99999.0,'11111222,11111222,99999999' 
TABS,ioos:station:wmo:42044:1,1999-01-03T01:00:00Z,26.1914,-97.0507,2.0,237.2061626,15.95235719,-99999.0,'11111222,11111222,99999999' 
TABS,ioos:station:wmo:42044:1,1999-01-03T01:30:00Z,26.1914,-97.0507,2.0,270.0004209,18.33,-99999.0,'11111222,11111222,99999999' 
TABS,ioos:station:wmo:42044:1,1999-01-03T02:00:00Z,26.1914,-97.0507,2.0,262.5452977,35.61096039,-99999.0,'11111222,11111222,99999999' 
TABS,ioos:station:wmo:42044:1,1999-01-03T02:30:00Z,26.1914,-97.0507,2.0,268.1639675,23.1018549,-99999.0,'11111222,11111222,99999999' 
TABS,ioos:station:wmo:42044:1,1999-01-03T03:00:00Z,26.1914,-97.0507,2.0,256.9033275,17.74144301,-99999.0,'11111222,11111222,99999999' 
TABS,ioos:station:wmo:42044:1,1999-01-03T03:30:00Z,26.1914,-97.0507,2.0,274.0189054,25.54279742,-99999.0,'11111222,11111222,99999999' 
TABS,ioos:station:wmo:42044:1,1999-01-03T04:00:00Z,26.1914,-97.0507,2.0,289.2700598,22.57473366,-99999.0,'11111222,11111222,99999999' 
TABS,ioos:station:wmo:42044:1,1999-01-03T04:30:00Z,26.1914,-97.0507,2.0,309.0527967,37.6012779,-99999.0,'11111222,11111222,99999999' 
TABS,ioos:station:wmo:42044:1,1999-01-03T05:00:00Z,26.1914,-97.0507,2.0,271.0428874,24.73409388,-99999.0,'11111222,11111222,99999999' 
TABS,ioos:station:wmo:42044:1,1999-01-03T05:30:00Z,26.1914,-97.0507,2.0,292.971253,103.0842422,-99999.0,'11111222,11111222,99999999' 
TABS,ioos:station:wmo:42044:1,1999-01-03T06:00:00Z,26.1914,-97.0507,2.0,292.6988701,28.58387308,-99999.0,'11111222,11111222,99999999' 
TABS,ioos:station:wmo:42044:1,1999-01-03T06:30:00Z,26.1914,-97.0507,2.0,298.7744285,95.02300616,-99999.0,'11111222,11111222,99999999' 
TABS,ioos:station:wmo:42044:1,1999-01-03T07:00:00Z,26.1914,-97.0507,2.0,302.3500676,49.56215593,-99999.0,'11111222,11111222,99999999' 
TABS,ioos:station:wmo:42044:1,1999-01-03T07:30:00Z,26.1914,-97.0507,2.0,287.6960969,83.82630852,-99999.0,'11111222,11111222,99999999' 
TABS,ioos:station:wmo:42044:1,1999-01-03T08:00:00Z,26.1914,-97.0507,2.0,287.5418944,66.72268355,-99999.0,'11111222,11111222,99999999' 
TABS,ioos:station:wmo:42044:1,1999-01-03T08:30:00Z,26.1914,-97.0507,2.0,292.6692981,63.77694646,-99999.0,'11111222,11111222,99999999' 
TABS,ioos:station:wmo:42044:1,1999-01-03T09:00:00Z,26.1914,-97.0507,2.0,278.9144714,25.94334789,-99999.0,'11111222,11111222,99999999' 
TABS,ioos:station:wmo:42044:1,1999-01-03T09:30:00Z,26.1914,-97.0507,2.0,236.833585,13.34387125,-99999.0,'11111222,11111222,99999999' 
TABS,ioos:station:wmo:42044:1,1999-01-03T10:00:00Z,26.1914,-97.0507,2.0,213.7082667,8.595079988,-99999.0,'11133222,11111222,99999999' 
TABS,ioos:station:wmo:42044:1,1999-01-03T10:30:00Z,26.1914,-97.0507,2.0,166.1735964,10.58675115,-99999.0,'11111222,11111222,99999999' 
TABS,ioos:station:wmo:42044:1,1999-01-03T11:00:00Z,26.1914,-97.0507,2.0,283.3505811,45.17064755,-99999.0,'11111222,11111222,99999999' 
TABS,ioos:station:wmo:42044:1,1999-01-03T11:30:00Z,26.1914,-97.0507,2.0,194.5115721,17.2400261,-99999.0,'11111222,11111222,99999999' 
TABS,ioos:station:wmo:42044:1,1999-01-03T12:00:00Z,26.1914,-97.0507,2.0,269.5023774,34.57130168,-99999.0,'11111222,11111222,99999999' 
TABS,ioos:station:wmo:42044:1,1999-01-03T12:30:00Z,26.1914,-97.0507,2.0,188.6114427,12.95606808,-99999.0,'11111222,11111222,99999999' 
TABS,ioos:station:wmo:42044:1,1999-01-03T13:00:00Z,26.1914,-97.0507,2.0,196.2263911,17.07000293,-99999.0,'11111222,11111222,99999999' 
TABS,ioos:station:wmo:42044:1,1999-01-03T13:30:00Z,26.1914,-97.0507,2.0,237.2343063,22.85662486,-99999.0,'11111222,11111222,99999999' 
TABS,ioos:station:wmo:42044:1,1999-01-03T14:00:00Z,26.1914,-97.0507,2.0,247.4032874,33.72923361,-99999.0,'11111222,11111222,99999999' 
TABS,ioos:station:wmo:42044:1,1999-01-03T14:30:00Z,26.1914,-97.0507,2.0,196.641678,18.19200374,-99999.0,'11111222,11111222,99999999' 
TABS,ioos:station:wmo:42044:1,1999-01-03T15:00:00Z,26.1914,-97.0507,2.0,266.7925555,47.90502374,-99999.0,'11111222,11111222,99999999' 
TABS,ioos:station:wmo:42044:1,1999-01-03T15:30:00Z,26.1914,-97.0507,2.0,181.1689261,22.05459136,-99999.0,'11111222,11111222,99999999' 
TABS,ioos:station:wmo:42044:1,1999-01-03T16:00:00Z,26.1914,-97.0507,2.0,140.1355197,61.14148346,-99999.0,'11111222,11111222,99999999' 
TABS,ioos:station:wmo:42044:1,1999-01-03T16:30:00Z,26.1914,-97.0507,2.0,228.151424,28.80867925,-99999.0,'11111222,11111222,99999999' 
TABS,ioos:station:wmo:42044:1,1999-01-03T17:00:00Z,26.1914,-97.0507,2.0,200.9022196,37.16592525,-99999.0,'11111222,11111222,99999999' 
TABS,ioos:station:wmo:42044:1,1999-01-03T17:30:00Z,26.1914,-97.0507,2.0,230.9590727,35.48346235,-99999.0,'11111222,11111222,99999999' 
TABS,ioos:station:wmo:42044:1,1999-01-03T18:00:00Z,26.1914,-97.0507,2.0,229.1138644,32.3273754,-99999.0,'11111222,11111222,99999999' 
TABS,ioos:station:wmo:42044:1,1999-01-03T18:30:00Z,26.1914,-97.0507,2.0,267.0492437,81.01738702,-99999.0,'11111222,11111222,99999999' 
TABS,ioos:station:wmo:42044:1,1999-01-03T19:00:00Z,26.1914,-97.0507,2.0,252.3894706,42.83748942,-99999.0,'11111222,11111222,99999999' 
TABS,ioos:station:wmo:42044:1,1999-01-03T19:30:00Z,26.1914,-97.0507,2.0,264.6450642,68.68973868,-99999.0,'11111222,11111222,99999999' 
TABS,ioos:station:wmo:42044:1,1999-01-03T20:00:00Z,26.1914,-97.0507,2.0,274.8454327,104.0718699,-99999.0,'11111222,11111222,99999999' 
TABS,ioos:station:wmo:42044:1,1999-01-03T20:30:00Z,26.1914,-97.0507,2.0,261.3414476,50.48532559,-99999.0,'11111222,11111222,99999999' 
TABS,ioos:station:wmo:42044:1,1999-01-03T21:00:00Z,26.1914,-97.0507,2.0,275.8824567,113.3869856,-99999.0,'11111222,11111222,99999999' 
TABS,ioos:station:wmo:42044:1,1999-01-03T21:30:00Z,26.1914,-97.0507,2.0,269.8289214,50.36022339,-99999.0,'11111222,11111222,99999999' 
TABS,ioos:station:wmo:42044:1,1999-01-03T22:00:00Z,26.1914,-97.0507,2.0,276.9254243,111.2213837,-99999.0,'11111222,11111222,99999999' 
TABS,ioos:station:wmo:42044:1,1999-01-03T22:30:00Z,26.1914,-97.0507,2.0,261.7499085,48.78481731,-99999.0,'11111222,11111222,99999999' 
TABS,ioos:station:wmo:42044:1,1999-01-03T23:00:00Z,26.1914,-97.0507,2.0,280.0297856,106.9747283,-99999.0,'11111222,11111222,99999999' 
TABS,ioos:station:wmo:42044:1,1999-01-04T00:00:00Z,26.1914,-97.0507,2.0,259.1191413,51.28188764,-99999.0,'11111222,11111222,99999999' 
TABS,ioos:station:wmo:42044:1,1999-01-04T00:30:00Z,26.1914,-97.0507,2.0,259.1191413,51.28188764,-99999.0,'11111222,11111222,99999999' 
TABS,ioos:station:wmo:42044:1,1999-01-04T01:00:00Z,26.1914,-97.0507,2.0,276.2834993,113.0289317,-99999.0,'11111222,11111222,99999999' 
TABS,ioos:station:wmo:42044:1,1999-01-04T01:30:00Z,26.1914,-97.0507,2.0,268.220857,48.00313011,-99999.0,'11111222,11111222,99999999' 
TABS,ioos:station:wmo:42044:1,1999-01-04T02:00:00Z,26.1914,-97.0507,2.0,286.936616,95.63785704,-99999.0,'11111222,11111222,99999999' 
TABS,ioos:station:wmo:42044:1,1999-01-04T02:30:00Z,26.1914,-97.0507,2.0,276.1598647,41.66050048,-99999.0,'11111222,11111222,99999999' 
TABS,ioos:station:wmo:42044:1,1999-01-04T03:00:00Z,26.1914,-97.0507,2.0,271.3494965,107.4597869,-99999.0,'11111222,11111222,99999999' 
TABS,ioos:station:wmo:42044:1,1999-01-04T03:30:00Z,26.1914,-97.0507,2.0,263.078236,40.82753115,-99999.0,'11111222,11111222,99999999' 
TABS,ioos:station:wmo:42044:1,1999-01-04T04:00:00Z,26.1914,-97.0507,2.0,270.0004209,105.79,-99999.0,'11111222,11111222,99999999' 
TABS,ioos:station:wmo:42044:1,1999-01-04T04:30:00Z,26.1914,-97.0507,2.0,252.4341864,46.88616534,-99999.0,'11111222,11111222,99999999' 
TABS,ioos:station:wmo:42044:1,1999-01-04T05:00:00Z,26.1914,-97.0507,2.0,260.9764948,99.72406781,-99999.0,'11111222,11111222,99999999' 
TABS,ioos:station:wmo:42044:1,1999-01-04T05:30:00Z,26.1914,-97.0507,2.0,242.5252117,41.98522835,-99999.0,'11111222,11111222,99999999' 
TABS,ioos:station:wmo:42044:1,1999-01-04T06:00:00Z,26.1914,-97.0507,2.0,266.4232531,95.54606847,-99999.0,'11111222,11111222,99999999' 
TABS,ioos:station:wmo:42044:1,1999-01-04T06:30:00Z,26.1914,-97.0507,2.0,235.8649027,47.52814429,-99999.0,'11111222,11111222,99999999' 
TABS,ioos:station:wmo:42044:1,1999-01-04T07:00:00Z,26.1914,-97.0507,2.0,262.7868285,86.6557286,-99999.0,'11111222,11111222,99999999' 
TABS,ioos:station:wmo:42044:1,1999-01-04T07:30:00Z,26.1914,-97.0507,2.0,245.5075987,42.40571306,-99999.0,'11111222,11111222,99999999' 
TABS,ioos:station:wmo:42044:1,1999-01-04T08:00:00Z,26.1914,-97.0507,2.0,266.0965266,80.94774673,-99999.0,'11111222,11111222,99999999' 
TABS,ioos:station:wmo:42044:1,1999-01-04T08:30:00Z,26.1914,-97.0507,2.0,242.198399,43.11695374,-99999.0,'11111222,11111222,99999999' 
TABS,ioos:station:wmo:42044:1,1999-01-04T09:00:00Z,26.1914,-97.0507,2.0,266.4523937,62.54983453,-99999.0,'11111222,11111222,99999999' 
TABS,ioos:station:wmo:42044:1,1999-01-04T09:30:00Z,26.1914,-97.0507,2.0,239.9707397,40.7843622,-99999.0,'11111222,11111222,99999999' 
TABS,ioos:station:wmo:42044:1,1999-01-04T10:00:00Z,26.1914,-97.0507,2.0,272.0379542,54.56449853,-99999.0,'11111222,11111222,99999999' 
TABS,ioos:station:wmo:42044:1,1999-01-04T10:30:00Z,26.1914,-97.0507,2.0,237.4371718,31.28837644,-99999.0,'11111222,11111222,99999999' 
TABS,ioos:station:wmo:42044:1,1999-01-04T11:00:00Z,26.1914,-97.0507,2.0,263.6077538,57.57791677,-99999.0,'11111222,11111222,99999999' 
TABS,ioos:station:wmo:42044:1,1999-01-04T11:30:00Z,26.1914,-97.0507,2.0,226.3466785,26.77138958,-99999.0,'11111222,11111222,99999999' 
TABS,ioos:station:wmo:42044:1,1999-01-04T12:00:00Z,26.1914,-97.0507,2.0,264.9544394,55.94675415,-99999.0,'11111222,11111222,99999999' 
TABS,ioos:station:wmo:42044:1,1999-01-04T12:30:00Z,26.1914,-97.0507,2.0,187.7677501,27.52255984,-99999.0,'11111222,11111222,99999999' 
TABS,ioos:station:wmo:42044:1,1999-01-04T13:00:00Z,26.1914,-97.0507,2.0,258.1361448,45.67561822,-99999.0,'11111222,11111222,99999999' 
TABS,ioos:station:wmo:42044:1,1999-01-04T13:30:00Z,26.1914,-97.0507,2.0,254.9929782,29.93076344,-99999.0,'11111222,11111222,99999999' 
TABS,ioos:station:wmo:42044:1,1999-01-04T14:00:00Z,26.1914,-97.0507,2.0,266.4741754,80.01141169,-99999.0,'11111222,11111222,99999999' 
TABS,ioos:station:wmo:42044:1,1999-01-04T14:30:00Z,26.1914,-97.0507,2.0,250.2167383,41.80739289,-99999.0,'11111222,11111222,99999999' 
TABS,ioos:station:wmo:42044:1,1999-01-04T15:00:00Z,26.1914,-97.0507,2.0,271.1274207,106.2605557,-99999.0,'11111222,11111222,99999999' 
TABS,ioos:station:wmo:42044:1,1999-01-04T15:30:00Z,26.1914,-97.0507,2.0,268.8466495,103.8710287,-99999.0,'11111222,11111222,99999999' 
TABS,ioos:station:wmo:42044:1,1999-01-04T16:00:00Z,26.1914,-97.0507,2.0,271.8780875,45.47441698,-99999.0,'11111222,11111222,99999999' 
TABS,ioos:station:wmo:42044:1,1999-01-04T16:30:00Z,26.1914,-97.0507,2.0,252.5960862,39.35143454,-99999.0,'11111222,11111222,99999999' 
TABS,ioos:station:wmo:42044:1,1999-01-04T17:00:00Z,26.1914,-97.0507,2.0,257.085462,29.35243942,-99999.0,'11111222,11111222,99999999' 
TABS,ioos:station:wmo:42044:1,1999-01-04T17:30:00Z,26.1914,-97.0507,2.0,190.4697055,31.9723271,-99999.0,'11111222,11111222,99999999' 
TABS,ioos:station:wmo:42044:1,1999-01-04T18:00:00Z,26.1914,-97.0507,2.0,251.4807033,32.36594661,-99999.0,'11111222,11111222,99999999' 
TABS,ioos:station:wmo:42044:1,1999-01-04T18:30:00Z,26.1914,-97.0507,2.0,172.0941005,21.66591794,-99999.0,'11111222,11111222,99999999' 